[[{"header":{"parameterUnit":"m.s-1","parameterCategory":1,"la1":30.2992,"la2":30.254,"lo1":-89.0895,"lo2":-89.0443,"dy":0.0025,"dx":0.0025,"nx":19,"ny":19,"refTime":"2026-05-23T03:00:00:Z","depth":0,"parameterNumber":2,"parameterNumberName":"U-component_of_WINDS"},"data":[0,0,0,-3.416,-3.4165,-3.4391,-3.4392,-3.4672,-3.4675,0,0,0,0,0,0,0,0,0,0,0,-3.4089,-3.4091,-3.416,-3.4165,-3.4391,-3.4392,-3.4672,-3.4675,0,0,0,0,0,0,0,0,0,0,0,-3.4088,-3.409,-3.4092,-3.4166,-3.4391,-3.4392,-3.4671,-3.4504,0,0,0,0,0,0,0,0,0,0,-3.4285,-3.4216,-3.409,-3.4092,-3.4167,-3.4391,-3.4392,-3.4496,-3.4514,-3.4566,0,-3.4613,0,-3.4648,-3.4693,-3.4694,0,0,0,-3.4168,-3.4201,-3.4265,-3.4093,-3.4169,-3.439,-3.429,-3.4506,-3.4527,-3.4591,-3.4617,-3.4628,-3.4653,-3.4695,-3.4696,-3.4987,-3.4988,0,0,-3.4156,-3.4127,-3.4251,-3.4279,-3.4244,-3.4283,-3.4297,-3.4519,-3.4545,-3.4618,-3.4634,-3.4657,-3.4697,-3.4699,-3.4986,-3.4987,0,0,0,-3.4118,-3.4118,-3.4178,-3.4267,-3.4308,-3.4289,-3.4306,-3.4535,-3.4557,-3.4637,-3.4661,-3.4698,-3.4702,-3.4985,-3.4986,-3.5016,0,0,0,-3.411,-3.4096,-3.4172,-3.4157,-3.4304,-3.4425,-3.4317,-3.4542,-3.4568,-3.4659,-3.4698,-3.4704,-3.4983,-3.4986,-3.5012,-3.5034,0,0,0,-3.4075,-3.4092,-3.4124,-3.4155,-3.4251,-3.4422,-3.4457,-3.4548,-3.4582,-3.4694,-3.4705,-3.4982,-3.4985,-3.5009,-3.5029,-3.5099,0,0,0,-3.403,-3.415,-3.4124,-3.4266,-3.4249,-3.444,-3.4456,-3.4599,-3.47,-3.47,-3.4984,-3.4986,-3.5008,-3.5026,-3.5095,-3.515,-3.5171,0,0,-3.4165,-3.4165,-3.4251,-3.4234,-3.4421,-3.4407,-3.4599,-3.4719,-3.4756,-3.4907,-3.4915,-3.5013,-3.5028,-3.5098,-3.5306,-3.5322,0,0,0,-3.4283,-3.4344,-3.44,-3.4493,-3.4587,-3.4667,-3.476,-3.4804,-3.4933,-3.4828,-3.5061,-3.507,-3.5112,-3.5139,-3.5153,-3.5189,-3.4999,-3.4998,-3.4998,-3.4432,-3.4472,-3.4615,-3.4681,-3.4771,-3.4864,-3.494,-3.5014,-3.5031,-3.5084,-3.5128,-3.525,-3.5281,-3.5291,-3.5328,-3.5164,-3.5164,-3.5164,-3.5164,-3.4629,-3.472,-3.4735,-3.4879,-3.492,-3.5041,-3.5134,-3.5141,-3.5258,-3.5221,-3.526,-3.5212,-3.5308,-3.5342,-3.5167,-3.5167,-3.5166,-3.5166,-3.5166,-3.4728,-3.4777,-3.4828,-3.4964,-3.5065,-3.5129,-3.5239,-3.5274,-3.5307,-3.5346,-3.5393,-3.5392,-3.5393,-3.5366,-3.5367,-3.5367,-3.5368,-3.5368,-3.5368,-3.4808,-3.4864,-3.4953,-3.506,-3.5122,-3.5209,-3.5301,-3.5364,-3.5441,-3.5457,-3.5457,-3.5464,-3.5312,-3.527,-3.5375,-3.5374,-3.5373,-3.5372,-3.5372,-3.4987,-3.4951,-3.5088,-3.515,-3.5276,-3.5371,-3.5414,-3.5537,-3.5593,-3.5645,-3.5645,-3.5528,-3.553,-3.5519,-3.5485,-3.5639,-3.5639,-3.5639,-3.5639,-3.5067,-3.5071,-3.5217,-3.5313,-3.5412,-3.5463,-3.5613,-3.5686,-3.5755,-3.5791,-3.5775,-3.5734,-3.5721,-3.5731,-3.5715,-3.5683,-3.5884,-3.5885,-3.5885,-3.5176,-3.5192,-3.5313,-3.538,-3.5481,-3.5565,-3.5706,-3.5814,-3.5886,-3.5895,-3.582,-3.5809,-3.5743,-3.572,-3.5724,-3.57,-3.5642,0,0]},{"header":{"parameterUnit":"m.s-1","parameterCategory":1,"la1":30.2992,"la2":30.254,"lo1":-89.0895,"lo2":-89.0443,"dy":0.0025,"dx":0.0025,"nx":19,"ny":19,"refTime":"2026-05-23T03:00:00:Z","depth":0,"parameterNumber":3,"parameterNumberName":"V-component_of_WINDS"},"data":[0,0,0,2.799,2.7995,2.8207,2.8208,2.8466,2.8469,0,0,0,0,0,0,0,0,0,0,0,2.7922,2.7923,2.799,2.7995,2.8207,2.8208,2.8466,2.8469,0,0,0,0,0,0,0,0,0,0,0,2.7921,2.7923,2.7925,2.7996,2.8206,2.8208,2.8465,2.8309,0,0,0,0,0,0,0,0,0,0,2.8106,2.8037,2.7922,2.7925,2.7997,2.8206,2.8208,2.8302,2.8319,2.8366,0,2.8407,0,2.8442,2.8485,2.8486,0,0,0,2.7999,2.8023,2.8086,2.7925,2.7999,2.8206,2.8112,2.8312,2.8331,2.8388,2.8411,2.8421,2.8446,2.8487,2.8488,2.8748,2.8749,0,0,2.7987,2.7956,2.8072,2.8098,2.8066,2.8105,2.8119,2.8324,2.8346,2.8412,2.8427,2.8451,2.8489,2.849,2.8748,2.8749,0,0,0,2.7951,2.7948,2.8006,2.8087,2.8126,2.8111,2.8127,2.8336,2.8358,2.843,2.8454,2.849,2.8493,2.8746,2.8748,2.8771,0,0,0,2.7944,2.7927,2.8,2.7984,2.8122,2.8234,2.8135,2.8344,2.8368,2.8452,2.849,2.8496,2.8745,2.8747,2.8768,2.8787,0,0,0,2.791,2.7923,2.7952,2.7982,2.8072,2.8232,2.8265,2.835,2.8382,2.8486,2.8496,2.8745,2.8747,2.8766,2.8783,2.8848,0,0,0,2.7864,2.7968,2.7952,2.8077,2.807,2.8245,2.8264,2.8395,2.8487,2.8491,2.8746,2.8748,2.8765,2.878,2.8845,2.8898,2.8917,0,0,2.7978,2.7981,2.8057,2.8049,2.8219,2.8215,2.8388,2.85,2.8537,2.8675,2.8682,2.8769,2.8783,2.8847,2.9032,2.9047,0,0,0,2.8083,2.8137,2.8189,2.8276,2.8366,2.8444,2.8533,2.8575,2.8694,2.8602,2.8811,2.8819,2.8859,2.8885,2.8898,2.8934,2.8759,2.8758,2.8758,2.82,2.8244,2.8373,2.8442,2.8526,2.8617,2.8689,2.8761,2.8778,2.8826,2.8868,2.8976,2.9006,2.9015,2.9052,2.8899,2.8899,2.8899,2.8899,2.8372,2.8457,2.8479,2.8613,2.8657,2.8769,2.8861,2.8869,2.8979,2.8947,2.8984,2.8946,2.9031,2.9065,2.8901,2.8901,2.8901,2.89,2.89,2.8455,2.8503,2.8553,2.8685,2.878,2.8845,2.8951,2.8987,2.9021,2.9057,2.9106,2.9105,2.911,2.9078,2.9078,2.9078,2.9079,2.9079,2.9079,2.8522,2.8578,2.8663,2.8767,2.8828,2.8913,2.9006,2.9067,2.9143,2.9161,2.9161,2.9174,2.9031,2.8994,2.9085,2.9084,2.9083,2.9083,2.9082,2.8683,2.8652,2.8784,2.8845,2.8971,2.9064,2.9108,2.9229,2.9284,2.9335,2.934,2.9228,2.9232,2.9223,2.9193,2.933,2.933,2.933,2.933,2.8753,2.8759,2.8903,2.8999,2.9097,2.9151,2.9297,2.937,2.944,2.9477,2.9462,2.9425,2.9414,2.9426,2.9411,2.9384,2.9567,2.9567,2.9567,2.8855,2.8872,2.8991,2.9061,2.9162,2.9247,2.9387,2.9495,2.9568,2.9578,2.9507,2.9497,2.9438,2.9416,2.9425,2.9402,2.9353,0,0]}]]